Lapse_Rate
5.7 5.7 5.7 5.7 5.7 5.6 5.6 5.5 5.6 5.8 5.9 5.9 6.0 6.2 6.3 6.5 6.5 6.4 6.4 6.5 6.5 6.5 6.4 6.5 6.4 6.3 6.2 6.4 6.7 7.1 7.3 7.4 7.6 7.5 7.3 7.0 7.2 7.3 7.3 7.7 7.6 7.5 7.3 7.1 7.0 6.9 6.9
5.8 5.8 5.9 5.8 5.8 5.8 5.7 5.6 5.6 5.7 5.8 5.9 6.0 6.1 6.2 6.4 6.5 6.5 6.6 6.6 6.6 6.6 6.6 6.6 6.6 6.4 6.3 6.4 6.7 7.0 7.3 7.5 7.5 7.6 7.3 7.0 7.2 7.4 7.1 7.5 7.7 7.5 7.3 7.2 7.1 7.0 6.9
5.8 5.9 5.9 5.9 5.9 5.8 5.8 5.8 5.7 5.7 5.8 5.9 6.0 6.1 6.2 6.3 6.4 6.4 6.6 6.9 6.7 6.7 6.6 6.8 6.7 6.6 6.5 6.5 6.6 7.0 7.2 7.1 7.2 7.7 7.6 7.5 7.2 7.4 7.1 7.2 7.6 7.6 7.4 7.2 7.0 6.8 6.8
5.5 5.7 5.7 5.8 5.8 5.8 5.8 5.8 5.9 6.0 6.0 6.0 6.0 6.1 6.1 6.2 6.3 6.3 6.7 6.8 6.7 6.7 6.7 6.8 6.8 6.7 6.6 6.5 6.6 7.0 7.4 7.3 7.6 8.0 7.9 7.8 7.5 7.3 7.4 7.1 7.3 7.4 7.3 7.1 6.9 6.7 6.6
5.3 5.6 5.6 5.5 5.4 5.5 5.6 5.7 5.7 5.8 6.0 6.0 6.1 6.2 6.2 6.3 6.1 6.2 6.7 6.7 6.8 6.8 6.7 6.8 6.9 6.8 6.5 6.8 6.7 6.9 7.3 7.3 7.6 8.0 8.0 7.7 7.6 7.2 7.2 7.2 7.2 7.3 7.1 7.2 6.9 6.7 6.7
5.1 5.4 5.4 5.3 5.3 5.3 5.2 5.3 5.4 5.6 5.8 5.9 6.0 6.1 6.1 6.3 6.1 6.2 6.6 6.8 7.0 7.0 6.8 6.8 6.8 6.7 6.8 6.9 6.7 6.9 7.2 7.4 7.7 7.9 8.0 7.8 7.6 7.3 7.2 7.1 7.3 7.5 7.2 7.5 7.4 7.1 6.7
4.9 5.1 5.1 5.1 5.1 5.1 5.1 5.1 5.2 5.4 5.6 5.6 5.7 5.8 5.9 6.0 5.9 6.1 6.6 6.8 6.9 7.0 6.9 6.8 7.0 6.9 7.2 7.2 7.1 7.0 7.2 7.5 7.7 8.0 8.0 8.0 7.8 7.6 7.3 7.2 7.3 7.7 7.8 7.7 7.3 7.3 7.0
4.9 5.0 5.0 4.9 4.9 4.9 4.9 5.0 5.2 5.4 5.6 5.6 5.6 5.6 5.6 5.8 5.7 6.1 6.5 6.8 6.8 6.8 6.8 6.8 6.8 6.9 7.2 7.2 7.1 7.0 7.3 7.5 7.6 8.0 7.9 7.8 7.8 7.7 8.1 7.4 7.3 7.4 7.4 7.3 7.3 7.2 7.3
5.0 5.0 5.0 4.9 4.9 4.9 4.9 5.0 5.2 5.3 5.5 5.5 5.7 5.7 5.5 5.5 5.6 6.0 6.4 6.6 6.5 6.6 6.7 6.9 6.8 6.8 6.9 7.2 7.1 7.2 7.5 7.6 7.9 8.1 8.1 7.9 7.9 8.2 8.0 7.9 7.5 7.5 7.5 7.5 7.6 7.3 7.2
5.0 5.0 5.0 5.0 5.0 5.0 5.0 5.0 5.3 5.4 5.5 5.5 5.6 5.7 5.5 5.6 5.6 5.9 6.2 6.2 6.1 6.3 6.5 6.9 6.9 6.9 6.9 7.0 7.2 7.4 7.5 7.6 7.6 8.2 8.0 8.0 8.1 8.2 8.3 8.0 7.6 7.5 7.5 7.4 7.5 7.2 7.1
4.9 4.9 4.9 5.0 5.0 5.1 5.1 5.2 5.3 5.3 5.4 5.4 5.6 5.6 5.6 5.5 5.6 5.9 5.9 5.9 5.9 6.2 6.6 6.8 6.7 6.8 7.0 7.0 7.4 7.4 7.4 7.5 8.0 8.1 7.8 8.3 8.4 8.3 8.4 8.2 7.8 7.9 8.0 7.9 7.8 7.1 7.0
4.9 4.9 4.9 5.0 5.0 5.0 5.1 5.1 5.3 5.4 5.4 5.3 5.5 5.7 5.4 5.5 5.6 5.8 5.9 5.7 5.8 5.9 6.2 6.4 6.3 6.7 7.1 7.1 7.1 7.6 7.4 7.5 8.1 8.1 8.2 8.4 8.4 8.4 8.2 8.2 8.0 8.0 7.9 7.7 7.3 7.3 7.4
5.1 5.0 5.0 4.9 5.0 5.1 5.2 5.3 5.3 5.3 5.5 5.6 5.6 5.9 5.4 5.5 5.6 5.7 5.6 5.6 5.5 5.5 6.6 6.2 6.1 6.6 7.2 7.2 7.2 7.1 7.2 7.5 7.6 7.8 8.1 8.2 8.3 8.1 8.1 8.1 7.5 7.6 7.6 7.9 7.8 7.6 7.6
5.1 5.1 5.0 5.1 5.2 5.2 5.2 5.2 5.2 5.4 5.6 5.5 5.6 5.9 5.7 5.6 5.6 5.6 5.5 5.3 5.2 6.2 6.4 6.3 6.2 6.7 7.1 7.2 7.2 7.1 7.4 7.4 7.6 8.0 8.2 8.0 8.2 8.1 8.3 8.5 8.4 8.0 7.7 8.5 8.0 7.5 7.6
5.0 5.0 5.0 5.0 5.0 5.1 5.1 5.2 5.2 5.1 5.5 5.6 5.5 5.8 5.7 5.7 5.6 5.4 5.3 4.8 6.2 6.4 6.3 6.4 6.6 6.6 6.8 7.1 7.1 7.2 7.4 7.5 7.8 8.0 8.3 8.0 8.1 8.4 8.5 8.7 8.4 8.0 7.6 8.1 7.6 6.8 7.3
5.0 4.9 4.9 5.0 5.1 5.1 5.2 5.4 5.4 5.2 5.3 5.5 5.6 5.7 5.7 5.6 5.5 5.4 4.9 5.4 6.0 6.3 6.3 6.3 6.6 6.7 6.7 6.9 7.2 7.2 7.5 7.8 8.0 8.3 8.3 8.3 8.3 8.3 8.5 8.3 8.1 8.2 8.5 8.0 7.7 7.7 7.9
4.8 4.8 4.8 4.8 4.8 4.9 5.0 5.1 5.3 5.3 5.4 5.5 5.5 5.5 5.5 5.5 5.3 5.0 4.9 5.3 5.9 6.0 6.1 6.1 6.3 6.6 6.7 6.8 7.2 7.2 7.5 7.9 8.1 8.4 8.5 8.2 8.6 8.2 8.4 7.9 8.3 8.2 8.1 8.2 7.7 7.6 8.3
4.8 4.8 4.7 4.6 4.6 4.6 4.7 4.8 5.1 5.2 5.1 5.0 5.1 5.1 5.2 5.3 5.2 5.1 5.2 5.3 5.7 5.8 5.9 5.9 6.1 6.3 6.1 6.5 7.1 7.3 7.4 7.9 8.1 8.3 8.4 8.5 8.5 8.2 8.2 8.4 8.2 8.2 8.5 8.5 8.4 7.6 7.8
4.7 4.7 4.7 4.6 4.7 4.8 4.9 5.0 5.3 5.5 5.7 5.7 5.3 4.9 5.1 5.0 4.7 5.0 5.3 5.4 5.3 5.5 5.7 5.7 5.7 6.0 6.0 6.1 6.7 7.1 7.6 7.8 8.2 8.3 8.6 8.6 8.5 8.3 8.2 8.1 8.1 8.4 8.8 8.8 8.5 8.5 8.4
4.8 4.9 4.8 4.8 4.7 4.7 4.9 5.0 5.3 5.6 5.7 5.7 5.6 5.4 5.4 5.2 4.7 4.7 4.8 5.3 5.1 5.2 5.2 5.3 5.5 5.8 5.7 6.1 6.3 7.0 7.4 7.6 8.1 8.2 8.5 8.6 8.7 8.4 8.7 8.4 8.1 8.4 8.5 8.6 8.3 8.4 8.6
4.7 4.7 4.7 4.7 4.8 5.0 5.2 5.5 5.6 5.6 5.5 5.5 5.3 5.0 5.3 5.4 5.2 4.8 4.4 4.7 5.2 4.9 5.0 5.2 5.2 5.4 5.4 5.6 6.1 6.5 7.1 7.4 7.7 8.3 8.4 8.4 8.5 8.4 8.4 8.7 8.6 8.7 8.7 8.7 8.5 8.4 8.5
4.8 4.6 4.7 4.8 5.1 5.4 5.6 5.6 5.4 5.2 5.0 5.0 4.8 4.7 4.6 4.9 5.0 4.9 4.7 4.8 5.2 5.2 4.8 5.0 4.9 5.4 5.3 5.2 5.8 6.4 6.4 6.9 7.3 7.8 8.2 8.3 8.3 8.5 8.4 8.5 8.5 8.5 8.6 8.6 8.4 8.4 9.0
4.8 4.8 4.9 5.1 5.1 5.2 5.2 5.1 4.9 4.6 4.5 4.6 4.5 4.5 4.5 4.7 4.9 4.5 4.4 4.7 5.2 5.0 4.8 5.0 5.0 5.2 5.1 5.3 5.8 6.4 6.5 6.6 7.2 7.3 7.4 7.9 8.1 8.6 8.4 8.5 8.6 8.4 8.4 8.6 8.7 8.4 8.9
4.8 4.9 5.1 5.1 5.1 5.0 4.9 4.7 4.4 4.3 4.5 4.6 4.6 4.5 4.4 4.5 4.7 4.8 4.5 4.7 5.1 5.2 4.7 4.8 4.9 5.0 5.2 5.2 5.5 6.1 6.5 6.5 6.7 7.2 7.2 7.4 8.1 8.3 8.5 8.5 8.5 8.3 8.7 8.8 8.6 8.6 8.5
5.0 5.1 5.2 5.2 5.0 4.7 4.5 4.5 4.5 4.6 4.8 5.0 4.9 4.8 4.6 4.5 4.8 4.9 5.0 5.0 5.3 5.4 5.1 5.1 5.1 5.4 5.1 5.0 5.2 6.1 6.4 6.4 6.8 7.0 6.8 7.1 7.7 8.0 8.2 7.8 8.7 8.5 8.8 8.9 8.7 8.5 8.6
5.1 5.2 5.1 5.0 4.9 4.6 4.6 4.8 4.8 4.9 5.1 5.3 5.3 6.0 6.3 6.2 6.7 6.0 5.4 5.4 5.7 5.6 5.6 5.6 5.5 5.6 5.3 5.1 5.0 5.5 6.8 6.7 7.2 7.2 7.1 7.1 7.3 7.5 8.0 8.5 8.1 8.3 9.0 9.2 9.2 8.8 9.1
5.2 5.1 4.9 4.8 4.7 4.6 5.1 5.3 5.2 4.9 5.4 5.7 5.8 5.7 6.0 6.0 6.9 6.4 6.5 6.8 6.4 5.9 6.0 5.8 5.8 5.6 5.4 5.2 5.1 5.6 6.4 7.2 7.4 7.4 7.2 7.2 7.3 6.9 7.4 8.5 8.2 8.3 9.0 9.2 8.6 8.7 9.2
5.1 5.0 4.9 4.8 4.6 4.8 5.3 5.6 5.5 5.4 5.4 5.6 5.6 5.8 5.8 5.9 6.6 6.0 6.3 6.4 6.4 6.0 6.2 5.7 6.0 5.8 5.7 5.3 5.2 5.5 6.0 6.8 7.2 7.6 7.8 7.6 7.2 6.4 6.8 7.8 8.2 8.4 9.1 8.7 8.9 9.1 9.2
5.0 5.0 4.9 4.9 4.9 5.2 5.6 5.8 5.6 5.6 5.7 5.7 5.6 5.8 5.7 5.5 6.0 5.8 5.9 5.9 5.9 6.1 6.3 5.9 6.2 5.9 5.6 5.3 5.3 5.5 6.5 7.1 7.0 7.6 7.9 8.1 8.0 7.8 7.7 7.6 8.2 8.3 9.1 9.0 9.0 9.1 9.3
Wind_Speed
15 16 16 18 18 17 17 18 19 21 22 23 23 23 23 24 26 26 27 27 28 26 24 21 21 20 6 2 5 5 13 20 15 11 8 4 1 1 3 4 3 5 5 9 12 12 13
15 15 16 17 18 18 18 19 20 21 22 23 25 25 25 25 26 27 27 29 28 27 23 20 16 13 2 4 2 7 13 15 8 8 7 3 2 3 5 4 5 4 13 15 12 14 11
14 14 15 17 17 17 18 19 20 21 21 22 24 26 26 27 28 29 29 29 30 28 24 18 9 2 2 9 4 6 11 7 9 4 5 2 3 4 1 4 4 12 15 12 9 8 5
16 17 16 16 17 18 18 19 20 21 22 23 24 25 27 28 30 31 30 30 30 24 16 4 6 2 6 2 2 2 5 6 7 1 1 3 6 3 2 5 3 5 5 4 6 6 6
15 15 15 16 18 17 18 19 20 21 22 23 25 26 28 29 30 31 32 31 21 6 4 10 3 1 5 5 3 1 6 3 9 3 2 3 2 4 2 6 3 4 5 5 7 2 6
14 15 16 17 18 18 19 20 20 21 22 23 25 26 29 30 31 31 32 21 4 3 2 2 0 2 3 2 3 1 3 4 4 8 3 3 2 3 3 7 6 8 5 4 6 8 8
15 15 17 18 17 19 19 20 21 22 23 24 26 27 29 31 32 30 13 1 2 2 1 4 1 3 3 8 4 4 5 7 5 4 3 2 4 6 9 10 2 10 9 9 5 7 9
15 16 16 17 17 19 20 21 22 22 23 25 26 27 29 32 31 26 2 4 5 2 7 3 10 8 7 3 4 3 11 8 5 7 6 4 7 7 4 7 5 10 11 5 5 6 8
14 15 16 16 18 19 20 21 22 23 24 25 26 27 29 32 33 3 4 10 4 3 3 4 5 4 4 8 5 8 14 6 10 8 10 5 0 2 9 8 11 7 13 11 7 8 3
13 14 15 17 19 19 20 21 23 24 25 27 28 27 26 35 1 5 1 1 9 3 2 2 4 3 6 5 5 5 9 6 4 13 9 6 1 6 7 8 11 7 9 11 15 10 4
11 13 14 16 18 19 20 21 23 24 26 27 29 27 23 13 6 3 2 9 1 2 2 2 3 1 2 8 6 10 2 3 10 8 6 6 6 7 4 3 11 1 11 13 14 5 4
12 13 15 16 18 19 20 22 23 25 27 28 29 27 23 1 2 5 7 7 3 2 5 2 2 5 6 5 3 5 7 2 4 6 3 3 1 3 3 6 10 17 18 9 5 3 3
12 13 15 17 18 20 21 22 23 25 28 30 32 29 13 3 1 5 7 2 2 4 2 2 2 1 5 7 5 8 14 13 12 12 10 3 4 4 11 12 12 2 12 4 3 4 0
12 14 15 17 19 20 22 23 25 26 28 32 34 23 3 4 5 9 2 3 5 1 4 2 2 2 8 7 6 7 16 18 8 14 8 10 10 10 9 4 9 12 5 2 4 4 3
12 13 14 16 17 19 20 22 24 26 30 34 23 3 1 2 4 3 3 6 4 4 1 4 2 4 7 2 5 7 15 22 18 12 14 10 9 4 4 5 9 6 5 2 6 2 3
11 13 14 15 16 19 20 21 23 26 31 30 5 3 4 8 4 2 3 6 3 2 1 1 2 1 7 4 5 7 12 11 13 10 12 7 9 3 6 6 8 3 12 4 1 6 3
12 14 15 14 16 18 20 21 23 26 31 21 2 2 7 4 3 0 5 6 5 5 1 2 0 2 1 2 3 5 12 3 10 12 4 10 6 5 8 9 11 5 5 5 1 3 3
12 12 13 15 17 19 20 20 23 26 31 7 3 1 4 4 1 1 3 4 1 3 3 3 2 3 2 2 2 3 8 3 2 15 15 7 3 4 4 2 4 4 7 10 4 4 2
14 13 15 17 18 18 19 20 22 23 20 4 3 3 2 1 2 3 3 3 3 4 5 5 4 4 0 1 2 1 2 3 8 9 16 9 7 6 6 3 3 6 5 5 4 3 5
15 15 16 17 17 19 20 21 22 22 18 2 2 2 1 1 1 3 3 4 6 5 4 3 3 2 1 1 0 3 2 3 8 2 7 6 11 10 11 9 6 5 6 9 12 6 6
15 16 16 17 17 18 19 20 21 21 16 2 3 2 3 2 2 3 5 5 7 8 5 8 4 7 5 4 2 3 2 4 1 5 2 6 15 10 14 6 6 5 7 14 15 11 12
16 15 16 16 16 15 17 18 17 17 13 2 3 3 3 4 6 6 5 7 10 6 5 6 4 7 6 5 3 2 4 3 3 7 3 3 8 9 19 8 10 13 9 12 11 5 2
15 16 16 16 15 15 16 16 15 12 7 2 1 1 1 3 3 4 5 9 10 12 8 10 7 7 7 9 10 10 7 12 11 6 3 2 4 7 15 8 10 11 15 15 13 10 8
14 15 16 16 15 14 16 16 14 10 0 1 1 1 2 5 6 8 7 7 8 8 8 2 3 10 2 1 7 8 7 11 13 12 10 2 1 2 10 9 12 13 11 15 19 16 13
15 15 15 16 16 16 16 18 15 9 4 2 1 1 2 4 7 13 16 11 9 6 7 10 11 8 3 3 3 5 5 4 11 14 15 15 4 3 7 12 2 6 5 10 11 15 18
15 15 16 16 17 17 16 17 14 10 5 2 3 3 2 3 6 8 10 7 5 3 4 6 1 2 8 6 5 5 9 10 9 7 9 14 12 5 4 13 15 9 13 9 11 12 17
16 16 16 17 17 17 18 19 17 11 6 5 2 6 2 4 8 12 7 5 5 1 3 3 3 3 6 7 9 8 9 3 9 15 9 8 7 15 7 10 10 10 10 12 11 7 20
15 15 16 17 16 15 16 16 17 15 10 5 3 9 4 3 9 13 13 12 10 4 2 4 4 4 4 8 8 7 7 9 4 8 13 11 12 7 7 8 12 12 11 13 9 2 19
14 15 15 16 16 15 16 16 17 15 7 10 3 5 10 4 4 8 15 20 19 20 8 4 4 3 2 3 1 3 5 4 7 7 5 11 11 10 13 8 2 11 12 16 10 7 14
Wind_Direction
16 12 11 12 9 5 2 358 354 352 349 346 345 343 340 336 331 328 323 319 316 320 319 320 322 326 330 283 255 51 127 145 145 152 161 130 7 39 58 82 8 85 110 105 131 131 132
10 10 9 8 7 2 359 357 353 350 348 345 342 340 337 334 329 325 321 315 315 315 313 311 314 320 297 256 33 124 134 154 156 130 135 139 24 96 92 52 61 66 103 108 124 126 132
8 1 7 9 8 6 360 356 355 352 349 345 340 337 334 331 328 323 319 315 313 310 306 299 288 253 223 247 49 118 145 153 167 162 125 190 306 3 97 105 69 130 95 94 111 124 113
4 17 13 6 6 4 0 358 355 352 348 344 340 336 333 330 326 321 318 315 311 307 302 278 176 184 250 307 286 295 155 126 130 97 66 340 239 108 17 114 54 94 96 125 161 133 151
3 4 2 359 355 358 356 354 353 350 345 341 337 336 332 329 325 322 318 315 313 309 78 131 135 225 259 324 274 332 180 139 146 141 243 289 75 83 138 131 127 40 142 145 168 210 155
355 354 354 353 354 355 351 351 350 347 344 338 334 333 331 330 325 325 320 310 270 313 184 213 109 255 221 190 293 77 160 136 139 152 188 147 100 126 138 174 188 191 161 169 163 185 185
350 348 350 351 352 350 351 350 349 347 343 337 333 333 330 329 326 326 333 337 279 183 75 235 149 291 306 318 251 205 155 157 129 128 161 145 206 210 198 211 276 213 173 160 177 165 184
355 355 356 353 350 349 348 346 343 341 340 334 331 332 331 329 327 322 280 70 75 332 306 260 254 272 274 286 286 178 161 161 163 147 135 156 235 232 226 201 180 184 165 139 110 156 199
354 352 352 351 347 345 345 342 338 336 334 331 329 332 334 330 324 359 354 119 1 199 257 289 222 221 215 175 228 196 176 156 167 156 181 206 153 176 198 172 159 180 195 167 153 145 68
348 347 348 346 344 342 340 339 338 334 331 329 327 332 338 332 303 336 70 113 336 205 300 224 218 243 162 177 229 211 194 173 148 198 171 241 147 212 212 204 190 182 195 175 148 161 163
337 338 344 344 344 342 339 337 336 333 330 327 324 330 335 332 309 268 58 330 359 204 265 113 177 102 138 194 131 206 195 151 190 149 184 204 166 163 194 180 189 164 158 145 147 119 154
338 347 347 345 343 340 338 337 335 332 329 325 321 325 330 207 238 263 322 324 203 240 240 98 141 167 160 205 180 128 178 89 104 144 185 207 170 146 87 49 167 132 115 102 100 142 205
345 357 349 344 341 338 337 337 335 333 328 323 321 319 309 225 272 322 300 198 208 227 7 84 69 119 185 187 182 173 176 182 186 192 199 185 165 94 137 88 134 176 156 138 174 205 198
354 354 347 342 339 338 339 338 337 334 329 324 325 319 166 228 294 334 263 180 227 301 261 5 0 263 197 168 209 160 176 189 202 196 185 203 210 171 172 178 181 178 208 206 188 191 152
0 351 346 340 343 341 340 339 338 336 330 329 327 348 253 306 269 214 209 204 224 208 308 328 280 193 189 181 206 181 197 194 190 191 202 189 221 117 171 140 159 157 201 80 109 78 212
354 347 344 341 343 343 343 343 342 339 333 335 335 338 358 332 177 210 195 223 230 229 320 322 242 340 199 191 195 203 178 183 184 195 208 183 219 117 123 126 56 218 142 171 103 168 173
349 344 342 345 347 346 347 347 346 344 338 336 354 21 359 24 269 249 208 224 236 231 238 343 301 307 278 196 224 197 186 148 192 182 176 156 224 128 157 208 174 149 171 69 109 287 154
344 338 350 350 348 346 349 349 349 350 347 27 344 354 19 323 189 332 210 205 255 207 178 225 243 263 269 288 216 207 193 253 222 177 200 185 147 165 165 86 227 190 171 191 228 187 90
339 354 353 347 346 346 347 349 350 355 6 327 14 292 345 322 238 219 264 250 256 191 203 195 230 229 101 307 263 228 261 20 2 194 185 178 208 185 154 162 140 202 182 173 132 132 200
352 352 347 345 344 347 348 348 348 351 4 27 344 333 16 81 76 305 278 247 222 213 227 208 244 155 201 266 53 351 332 322 338 345 28 192 207 210 207 211 148 181 194 198 209 215 185
347 339 344 339 342 347 345 345 347 349 358 347 12 43 11 293 183 267 290 308 232 213 208 200 191 224 194 230 244 220 210 277 58 354 122 186 218 201 231 191 181 213 191 186 207 218 203
336 335 334 332 336 344 341 343 344 350 349 30 352 357 350 290 295 261 211 235 246 220 208 181 203 177 191 213 239 41 20 284 13 21 75 11 206 200 232 199 235 245 240 209 203 214 143
340 340 337 338 338 337 335 333 335 345 5 9 7 329 281 284 271 244 229 229 251 250 255 247 232 252 237 239 257 278 267 280 278 300 343 48 192 185 226 204 219 249 232 197 202 196 172
333 336 333 331 330 328 323 319 315 329 166 260 238 285 263 266 254 241 283 317 285 279 266 228 244 224 225 12 286 258 243 252 255 238 228 210 99 265 210 162 218 236 248 211 207 203 208
341 337 333 335 336 331 325 324 319 326 220 227 166 195 244 265 272 275 273 276 291 298 250 250 257 245 164 290 296 270 206 223 232 223 206 216 203 220 208 211 274 241 195 179 188 218 201
335 334 332 330 328 325 325 321 321 320 276 204 217 174 216 271 259 274 289 283 287 251 273 232 172 320 201 204 208 229 209 205 185 140 208 203 212 228 172 215 219 217 208 221 201 249 189
329 330 329 327 322 321 321 315 317 313 275 196 240 191 205 262 261 269 263 317 298 328 268 297 344 196 194 195 212 219 230 229 199 188 155 162 182 209 214 220 224 197 208 149 186 236 173
327 327 329 328 330 332 338 337 323 308 281 185 244 186 215 264 265 264 262 261 277 265 279 4 289 191 182 199 213 207 228 222 208 171 166 166 165 184 202 209 233 173 147 180 203 121 175
327 327 326 327 325 327 326 330 341 344 279 195 250 218 210 232 267 271 266 261 256 257 287 271 301 308 10 254 199 289 249 224 226 204 186 196 201 181 200 199 264 195 180 210 187 165 181